SCP
1 1 1 1 1 0 0 0 0 0 0 0 0 0 0 0 0 0 0 0 1 1 1 1 1 1 1 1 1 1 0 0 0 0 0 0 0 0 0 0 0 0 0 0 0 0 0 0 0
1 1 1 1 0 0 0 0 0 0 0 0 0 0 0 0 0 0 0 0 0 1 1 1 1 1 1 1 1 1 1 0 0 0 0 0 0 0 0 0 0 0 0 0 0 0 0 0 0
1 1 1 0 0 0 0 0 0 0 0 0 0 0 0 0 0 0 0 0 0 0 0 1 1 2 1 1 1 1 1 1 1 1 0 0 0 0 0 0 0 0 0 0 0 0 0 0 0
1 1 0 0 0 0 0 0 0 0 0 0 0 0 0 0 0 0 0 0 0 0 0 1 1 2 1 1 1 1 1 1 1 1 1 0 0 0 0 0 0 0 0 0 0 0 0 0 0
1 1 0 0 0 0 0 0 0 0 0 0 0 0 0 0 0 0 0 0 0 0 0 1 1 1 1 1 1 1 1 1 1 1 1 0 0 0 0 0 0 0 0 0 0 0 0 0 0
0 0 0 0 0 0 0 0 0 0 0 0 0 0 0 0 0 1 1 0 0 1 1 0 1 1 1 1 1 1 1 1 1 1 1 1 0 0 0 0 0 0 0 0 0 0 0 0 0
1 1 0 0 0 0 0 0 0 0 0 0 0 0 0 0 0 1 1 1 1 1 1 0 0 1 1 1 1 1 1 1 1 1 1 1 0 0 0 0 0 0 0 0 0 0 0 0 0
1 1 0 0 0 0 0 0 0 0 0 0 0 0 0 0 0 1 1 1 1 1 1 0 0 0 0 0 1 1 1 1 1 1 0 0 0 0 0 0 0 0 0 0 0 0 0 0 0
1 1 0 0 0 0 0 0 0 0 0 0 0 1 0 0 0 0 1 1 1 1 1 1 0 0 0 0 0 0 0 1 0 0 0 0 0 0 0 0 0 0 0 0 0 0 0 0 0
1 1 0 0 0 0 0 0 0 0 0 0 1 1 1 0 0 0 0 0 0 0 0 1 1 0 0 0 0 0 0 0 0 0 0 0 0 0 0 0 0 0 0 0 0 0 0 0 0
0 0 0 0 0 0 0 0 0 0 0 0 0 1 1 0 0 0 0 0 0 0 0 0 0 0 0 0 0 0 0 0 0 0 0 0 0 0 0 0 0 0 0 0 0 0 0 0 0
0 0 0 0 0 0 0 0 0 0 0 0 0 1 0 0 0 0 0 0 0 0 0 0 0 0 0 0 0 0 0 0 0 0 0 0 0 0 0 0 0 0 0 0 0 0 0 0 0
0 0 0 0 0 0 0 0 0 0 0 0 0 0 0 0 0 0 0 0 0 0 0 0 0 0 0 0 0 0 0 0 0 0 0 0 0 0 0 0 0 0 0 0 0 0 0 0 0
0 0 0 0 0 0 0 0 0 0 0 0 0 0 0 0 0 0 0 0 0 0 0 0 0 0 0 0 0 0 0 0 0 0 0 0 0 0 0 0 0 0 0 0 0 0 0 0 0
0 0 0 0 0 0 0 0 0 0 0 0 0 0 1 0 0 0 0 1 0 0 0 0 0 0 0 0 0 0 0 0 1 1 1 0 0 0 0 0 0 0 0 0 0 0 0 0 0
0 0 0 0 0 0 0 0 0 0 0 0 0 1 1 1 0 1 1 1 0 0 0 0 0 0 0 0 0 0 0 0 1 1 1 1 0 0 0 0 0 0 0 0 0 0 0 0 0
0 0 0 0 0 0 0 0 0 0 0 0 0 1 1 1 1 1 1 1 1 0 0 0 0 0 0 0 0 0 0 0 1 1 1 1 1 1 1 0 0 0 0 0 0 0 0 0 0
0 0 0 0 0 0 0 0 0 0 0 0 0 1 1 1 1 1 1 1 1 0 0 0 0 0 0 0 0 0 0 0 1 1 1 1 1 1 1 0 0 0 0 0 0 0 0 0 0
0 0 0 0 0 0 0 0 0 0 0 0 0 0 0 1 1 1 1 1 1 1 0 0 0 0 0 0 0 0 0 0 1 1 1 1 1 1 1 1 1 0 0 0 0 0 0 0 0
0 0 0 0 0 0 0 0 0 0 0 0 0 0 0 0 0 0 1 1 1 1 1 0 0 0 0 0 0 0 0 0 0 1 2 2 1 1 1 1 1 1 1 0 0 0 0 0 0
0 0 0 0 0 0 0 0 0 0 0 0 0 0 0 0 0 0 1 1 1 1 1 1 0 0 0 0 0 0 0 0 0 1 2 2 2 1 1 1 1 1 1 0 0 0 0 0 0
0 0 0 0 0 0 0 0 0 0 0 0 0 0 0 0 0 0 0 1 1 1 1 1 1 0 0 0 0 0 0 0 0 1 2 2 1 1 1 1 1 0 0 0 0 0 0 0 0
0 0 0 0 0 0 0 0 0 0 0 0 0 0 0 0 0 0 0 1 1 1 1 1 1 0 0 0 0 0 0 0 0 1 1 1 1 1 1 0 0 0 0 0 0 0 0 0 0
0 0 0 0 0 0 0 0 0 0 0 0 0 0 0 0 0 0 0 0 1 1 1 1 1 1 0 0 0 0 0 0 0 0 1 0 0 0 0 0 0 0 0 0 0 0 0 0 0
0 0 0 0 0 0 0 0 0 0 0 0 0 0 0 0 0 0 0 0 0 0 0 0 0 1 1 0 0 0 0 0 0 0 0 0 0 0 0 0 0 0 0 0 0 0 0 1 1
0 0 0 0 0 0 0 0 0 0 0 0 0 0 0 0 0 0 0 0 0 0 0 0 0 0 1 1 0 0 0 0 0 0 0 0 0 1 0 0 0 0 0 0 0 0 1 1 1
0 0 0 0 0 0 0 0 0 0 0 0 0 0 0 0 0 0 0 0 0 0 0 0 0 0 1 1 0 0 0 0 0 0 0 0 0 1 1 0 0 0 0 0 0 0 1 1 1
0 0 0 0 0 0 0 0 0 0 0 0 0 0 0 0 0 0 0 0 0 0 0 0 0 0 0 0 0 0 0 0 0 0 0 0 0 1 1 1 0 0 0 0 0 0 0 1 1
0 0 0 0 0 0 0 0 0 0 0 0 0 0 0 0 0 0 0 0 0 0 0 0 0 0 0 0 0 0 0 0 0 0 0 0 0 1 1 1 1 0 0 0 0 0 0 0 0
0 0 0 0 0 0 0 0 0 0 0 0 0 0 0 0 0 0 0 0 0 0 0 0 0 0 0 0 0 0 0 0 0 0 0 0 0 1 1 1 1 0 0 0 0 0 0 0 0
Wind_Speed
15 11 6 3 3 4 3 1 3 5 5 7 7 6 10 11 8 8 3 7 12 14 14 12 11 12 12 11 11 10 10 10 11 10 10 10 10 10 10 10 10 9 10 10 10 10 10 9 9
12 9 4 3 4 3 2 2 5 8 7 5 5 5 9 10 9 7 4 7 11 13 13 11 11 12 12 11 10 10 9 10 10 10 10 10 10 10 10 9 9 8 9 9 8 8 8 8 8
10 7 4 3 3 3 1 5 8 8 5 3 4 7 8 7 7 4 4 7 10 11 11 12 12 11 11 11 10 9 9 9 9 9 9 9 9 9 8 8 8 7 8 7 8 7 7 7 6
5 3 4 4 4 2 1 5 6 8 6 3 5 8 8 8 5 5 5 8 10 10 11 11 11 11 11 10 9 9 9 8 8 8 8 8 8 8 7 7 7 7 7 6 7 6 6 6 5
3 3 4 4 4 2 2 5 4 4 5 5 5 8 7 6 8 7 6 8 9 9 10 10 10 9 9 9 9 9 8 8 7 7 7 8 7 7 7 6 6 6 6 6 5 5 5 5 4
3 3 4 5 5 2 3 4 3 4 5 6 5 7 7 5 7 5 6 7 9 10 9 8 8 8 8 7 7 7 7 7 6 6 7 7 7 6 6 5 5 5 5 4 4 3 3 3 3
3 3 5 5 4 3 3 4 5 5 6 6 5 6 7 6 5 4 5 7 8 9 8 7 6 6 6 7 6 6 6 6 6 6 6 6 6 5 4 4 4 4 3 3 3 2 2 1 2
3 3 5 5 4 2 3 4 6 7 6 7 8 6 5 4 4 5 6 7 8 7 7 5 5 4 4 4 6 6 6 6 6 6 5 5 5 4 4 3 3 2 2 1 2 1 1 1 1
3 3 4 3 1 3 4 5 6 6 7 8 9 9 7 6 6 6 6 7 7 6 5 4 4 3 3 4 5 5 6 6 6 5 4 4 2 3 3 3 3 2 1 1 1 1 2 2 3
2 3 2 3 3 4 6 6 4 4 7 6 8 10 9 7 7 7 6 6 5 5 4 3 3 3 3 3 4 2 3 3 2 2 2 1 1 2 2 3 2 1 1 1 2 3 3 3 2
1 1 0 4 6 5 5 6 7 4 6 5 5 7 7 7 7 6 5 5 4 3 3 3 3 2 3 2 2 1 2 2 1 2 1 1 1 2 2 1 1 1 1 1 2 2 2 2 1
1 3 3 4 5 5 4 4 6 8 6 6 7 8 8 7 6 5 4 4 3 3 3 2 2 2 2 2 2 2 2 1 1 1 1 1 1 1 1 1 1 0 0 1 1 1 2 2 2
2 2 5 5 7 6 7 6 5 6 6 7 8 8 7 6 5 4 4 4 4 4 3 2 2 2 2 2 1 2 1 1 2 2 1 2 1 1 1 1 1 1 0 1 1 1 1 2 2
3 4 3 3 4 4 6 4 3 4 5 6 7 7 6 7 6 6 6 5 4 4 3 3 3 3 2 2 2 2 2 2 2 2 1 1 1 1 1 1 1 1 1 1 1 2 1 1 1
5 4 3 1 1 2 3 4 2 2 4 5 5 6 7 6 6 6 4 5 4 4 4 4 3 3 3 2 2 1 1 1 2 2 2 2 2 2 1 1 1 1 1 2 2 2 1 2 2
4 3 2 1 1 1 2 2 2 2 4 5 5 5 6 6 6 5 5 5 5 5 4 5 4 4 3 3 2 1 1 2 2 2 2 3 3 2 1 1 1 2 1 1 2 2 2 2 2
3 3 4 2 2 1 2 2 2 2 4 4 4 5 5 5 6 6 6 5 5 5 5 5 5 4 4 3 2 2 2 2 2 2 2 2 3 3 2 1 1 2 1 1 2 2 2 2 3
4 3 2 3 2 3 3 3 3 3 4 4 4 5 5 5 6 6 6 6 5 5 5 5 5 5 4 3 2 2 2 2 2 1 1 2 2 2 1 1 2 2 1 2 2 2 2 2 2
2 4 3 3 3 2 3 2 2 3 3 3 4 5 5 5 5 5 6 6 6 6 6 6 5 5 3 2 2 1 2 2 1 1 1 1 1 2 2 2 1 2 1 1 2 2 2 2 2
2 4 3 3 3 1 3 2 1 2 2 3 4 4 4 4 5 5 5 6 6 6 6 5 5 5 4 3 2 1 1 1 1 2 2 2 2 1 1 1 1 2 1 2 2 2 1 1 1
2 2 2 3 2 1 2 2 4 3 3 4 4 4 4 5 5 6 6 6 6 6 5 5 5 5 4 4 2 2 1 1 2 2 2 2 2 2 2 1 1 1 1 1 2 2 1 1 1
1 1 2 3 3 2 3 2 3 4 4 3 3 3 4 4 5 5 6 6 6 6 5 5 5 5 4 4 3 3 2 1 1 1 1 2 2 2 2 2 2 2 1 2 2 2 2 2 1
1 0 1 2 1 1 2 2 3 4 3 3 3 4 5 5 5 6 6 6 6 6 5 5 5 5 5 4 4 2 2 2 2 1 2 2 2 3 3 3 2 2 2 2 2 2 2 1 1
1 0 1 1 0 1 3 2 2 2 3 4 4 4 5 5 5 5 5 5 5 5 5 5 5 5 5 5 5 4 3 3 4 4 3 2 2 2 3 3 3 3 2 3 2 1 2 1 2
2 1 1 0 1 2 2 2 1 2 4 4 4 4 4 4 4 4 5 5 5 6 6 5 5 5 6 5 5 5 4 4 3 4 3 3 3 3 4 4 3 3 3 3 3 2 2 2 2
2 2 1 1 1 0 1 2 1 3 5 5 4 4 4 4 4 4 5 5 5 6 6 5 5 5 5 5 5 4 4 3 2 3 3 3 3 3 4 4 4 4 4 4 3 2 3 2 2
1 2 2 1 1 1 3 2 2 2 4 4 4 3 3 3 3 4 4 4 5 5 5 5 5 4 4 4 4 4 5 4 4 3 3 2 3 3 4 4 4 4 4 4 3 2 3 3 2
2 1 1 0 0 1 2 2 2 3 3 3 2 2 2 2 2 3 3 4 4 4 4 5 4 5 5 5 4 4 4 4 4 3 4 3 3 3 4 4 4 4 4 4 3 3 3 3 3
2 1 1 1 1 1 2 2 2 2 3 2 1 1 1 1 2 2 2 3 3 4 4 4 5 5 5 5 5 4 4 4 4 4 4 4 4 4 4 4 4 4 4 4 4 3 3 3 3
1 1 1 1 2 2 2 3 1 2 2 2 1 1 1 1 1 2 2 2 3 4 4 4 4 4 4 4 4 4 4 4 4 4 5 4 4 4 4 4 4 4 4 4 4 4 4 4 4
Wind_Direction
311 291 271 264 249 234 225 173 93 81 71 52 45 48 59 48 43 88 107 104 110 121 130 134 128 128 124 121 118 119 120 120 116 112 107 104 102 97 92 87 84 85 87 85 82 78 74 71 68
305 296 271 243 247 236 191 148 97 72 76 85 68 61 74 68 65 89 88 102 114 122 132 132 128 127 125 123 122 122 122 120 116 113 110 107 103 98 94 89 87 87 86 84 84 81 76 73 69
289 272 268 250 242 243 110 89 93 92 86 80 80 47 50 52 65 75 92 113 112 117 125 125 128 128 127 126 125 125 121 118 116 111 109 107 104 99 95 93 90 89 86 83 80 79 78 72 67
290 255 240 252 250 268 84 87 96 115 104 84 95 85 73 35 36 77 100 108 109 112 116 122 124 126 128 127 126 127 121 118 117 113 109 107 105 101 98 94 95 90 86 83 82 78 76 70 61
253 255 238 236 241 269 41 65 78 94 108 98 88 93 77 40 53 82 90 97 102 105 111 122 118 120 124 127 128 127 124 121 119 116 112 111 106 103 100 96 96 94 89 85 82 77 71 64 53
265 248 235 220 211 199 63 40 63 79 73 68 79 95 84 58 55 73 88 93 97 98 103 113 108 112 113 116 122 122 122 118 116 113 115 116 111 109 107 105 102 96 91 86 81 73 70 57 38
274 266 254 239 204 154 74 42 42 59 60 34 19 84 98 61 53 66 85 90 95 98 104 110 114 112 108 111 112 116 114 114 117 115 111 111 112 113 107 103 104 101 94 86 78 76 68 47 15
292 283 253 245 221 124 80 79 47 39 54 35 29 63 89 78 74 79 80 79 81 86 94 106 119 117 119 118 109 109 106 104 109 110 108 116 123 125 127 121 106 97 91 96 96 98 77 313 299
290 256 247 252 225 102 83 86 67 48 66 55 53 56 77 92 85 80 76 71 68 71 78 89 102 110 113 124 123 116 111 102 103 106 119 136 157 149 144 131 116 105 92 122 162 227 240 244 254
234 235 248 358 38 68 61 64 64 71 67 55 60 62 78 87 87 83 80 78 72 67 62 63 75 87 99 114 123 124 124 122 125 119 135 164 99 85 97 117 135 148 181 239 244 247 249 246 245
238 238 119 43 52 58 65 55 39 74 58 48 70 83 84 87 84 79 82 82 78 77 67 61 60 74 95 98 117 113 109 117 122 110 116 82 77 86 95 110 130 180 209 239 241 246 246 246 257
110 24 28 48 46 47 51 63 57 49 53 51 78 91 89 84 83 77 75 79 78 74 60 42 59 65 66 88 93 90 93 99 92 93 74 65 62 58 70 97 126 206 224 243 250 260 270 278 278
132 86 61 61 66 64 66 69 78 61 55 58 78 86 87 85 78 65 58 67 67 58 56 40 30 53 59 64 69 74 75 86 81 68 48 53 55 38 34 27 28 335 320 280 276 279 288 296 298
106 105 88 61 77 66 73 62 66 60 69 70 72 76 74 71 65 55 43 40 41 42 41 39 35 29 38 54 56 57 53 57 63 62 32 40 43 38 32 15 11 346 336 330 307 299 301 300 302
123 116 96 49 121 130 84 56 56 68 85 82 75 80 73 66 63 56 48 43 36 35 37 31 33 33 32 33 55 55 56 63 61 56 35 31 25 26 35 16 10 350 341 346 331 322 328 327 317
172 159 150 98 134 133 112 128 78 67 87 86 80 79 75 64 61 56 51 45 37 34 36 34 29 28 24 17 28 58 56 60 55 48 36 28 19 17 26 26 6 350 2 3 337 330 327 313 305
179 178 163 124 42 93 113 122 87 57 83 82 78 76 74 61 50 48 54 49 42 35 35 38 34 26 20 19 27 42 58 66 63 52 36 20 15 15 25 20 0 354 8 15 351 342 333 318 316
163 162 146 129 52 74 111 137 96 54 72 80 76 71 69 62 49 44 48 49 45 40 37 37 38 28 20 22 16 33 46 54 68 64 47 35 18 12 20 16 4 5 20 16 6 346 344 337 324
149 141 118 90 63 69 132 157 120 90 72 69 74 74 66 61 55 49 45 46 46 40 34 31 33 24 23 20 1 18 26 21 25 40 40 36 29 25 30 13 357 358 9 4 358 345 343 348 346
112 120 122 90 72 66 134 178 139 94 83 70 74 74 65 54 45 43 41 41 41 37 28 25 28 23 19 12 359 352 350 22 14 15 17 11 11 14 20 13 358 351 347 352 347 349 347 345 5
120 144 150 130 101 147 146 192 171 137 105 81 70 68 62 54 43 33 34 34 36 32 24 16 18 21 18 12 13 13 21 28 18 4 3 4 6 6 4 360 354 341 342 323 318 322 325 311 291
113 77 136 154 158 179 206 215 190 167 135 100 78 62 56 51 46 36 31 29 28 23 19 17 18 21 19 15 15 24 21 11 325 329 334 354 4 3 4 2 354 340 335 325 317 320 310 306 300
54 16 204 202 170 150 236 223 198 164 165 132 92 70 55 45 43 38 34 30 24 18 17 14 18 22 16 13 11 13 4 342 334 351 1 3 2 358 360 1 359 349 342 342 346 346 337 317 304
99 118 31 342 89 218 213 211 214 176 180 133 94 71 56 46 43 38 30 30 24 19 17 19 22 19 13 13 10 11 1 355 360 2 358 352 349 347 356 358 356 347 340 337 329 327 323 320 312
5 81 81 80 219 227 164 205 225 83 76 104 106 86 65 51 44 30 22 25 19 18 14 16 21 17 10 9 10 7 2 3 5 358 357 353 347 350 354 356 353 347 341 343 345 336 322 320 323
337 19 87 188 206 316 187 220 163 97 86 87 88 90 77 56 40 26 19 23 19 15 13 12 14 12 8 6 1 0 360 359 4 2 355 351 347 348 350 352 352 351 345 344 346 340 331 331 319
31 43 355 348 354 219 218 195 151 108 107 99 92 82 66 51 38 27 19 16 15 12 11 8 6 7 8 2 2 3 1 0 358 357 359 358 353 350 353 348 350 351 346 341 339 342 335 336 324
22 40 4 25 230 263 233 227 201 160 157 123 103 89 63 48 32 23 20 16 11 6 6 9 7 10 6 1 360 359 359 360 360 1 359 357 353 353 351 348 351 347 342 335 333 335 338 335 331
20 46 353 322 296 257 256 271 28 146 146 138 124 100 85 51 27 22 18 15 10 8 8 8 8 5 2 0 360 357 357 359 3 5 359 352 350 350 354 346 342 341 336 331 331 332 336 336 335
357 339 334 199 273 281 275 270 23 89 111 122 116 78 82 60 26 18 8 10 11 7 5 6 4 1 354 351 354 355 356 358 1 360 353 351 351 348 347 341 339 337 335 334 334 334 339 341 335